Cloud_Cover
5 6 80 100 100 100 19 27 97 96 98 10 2 96 37 86 1 3 35 20 0 5 10 0 0 5 100 100 100 100 67 16 2 0 0 0 0 0 0 0 0 0 0 0 0 0 0 0 0
100 99 91 61 30 90 86 99 100 98 16 20 46 88 95 56 4 41 100 76 5 5 4 4 0 50 80 100 73 83 9 72 5 1 0 0 0 0 0 0 0 0 0 0 0 0 0 0 0
100 100 100 7 4 5 100 61 99 85 61 18 23 76 100 81 53 100 100 100 5 5 5 31 0 13 100 100 100 61 5 32 38 5 5 5 5 0 0 0 0 0 0 0 0 0 0 0 0
100 100 76 3 8 100 100 100 100 7 100 37 67 88 11 99 75 15 98 100 5 5 11 86 33 1 100 100 100 93 61 5 8 7 41 5 100 1 0 0 0 0 0 0 0 0 0 0 0
100 100 33 3 73 95 100 99 49 100 6 77 76 13 97 99 10 98 100 92 5 6 34 100 81 0 48 100 100 24 100 100 88 100 83 90 100 5 5 1 2 0 0 0 1 0 1 1 0
100 100 62 58 100 50 5 92 100 100 71 84 99 100 100 79 16 39 73 28 1 1 45 96 98 23 1 100 81 100 100 100 76 93 100 100 100 9 36 5 3 0 2 2 4 5 0 0 0
5 100 71 5 16 5 7 11 61 64 100 100 100 100 100 20 5 5 7 5 0 0 36 88 100 87 3 100 100 100 100 77 5 50 100 100 100 88 100 5 0 4 0 4 5 5 5 5 0
100 100 50 14 98 5 1 3 6 100 38 5 18 21 56 55 11 26 5 5 4 3 24 80 100 100 70 100 100 100 48 8 5 37 100 100 100 100 24 27 4 0 2 0 5 5 5 5 69
100 100 94 4 64 48 4 3 55 0 5 5 4 5 6 5 82 36 5 5 4 4 34 92 100 100 96 100 100 96 23 15 8 31 100 100 100 100 100 100 100 99 4 5 5 5 5 32 85
100 100 18 11 5 100 100 100 59 5 1 1 0 1 1 5 12 1 5 4 34 86 35 65 99 100 100 100 81 60 100 99 63 84 100 100 100 100 100 100 100 42 5 5 5 5 19 12 99
100 99 81 92 15 100 100 94 100 26 99 33 2 0 1 1 5 5 4 5 18 98 5 39 86 77 72 70 44 96 96 100 96 97 100 100 95 100 100 100 100 100 16 20 5 3 5 18 99
100 100 100 100 10 56 100 100 90 88 27 0 91 16 20 98 64 5 3 8 5 92 5 5 45 90 95 100 70 72 44 89 100 100 100 100 100 100 100 100 100 90 39 41 6 8 5 50 93
100 100 100 100 100 100 92 46 69 96 0 3 61 4 33 55 97 5 5 5 5 58 7 0 11 51 85 100 84 91 92 100 100 100 100 100 100 100 100 100 100 100 40 98 82 70 25 25 19
23 100 100 100 54 5 15 75 76 100 83 41 81 95 100 71 62 5 3 5 5 5 5 5 3 14 32 100 100 61 99 100 100 100 100 100 100 100 94 99 100 100 69 87 60 78 88 98 100
36 16 98 100 5 8 15 28 20 10 68 100 99 100 100 8 23 1 4 4 5 5 6 13 5 5 39 11 100 100 100 100 100 100 100 97 87 100 100 98 100 100 100 100 100 98 86 100 100
100 98 100 100 100 96 5 27 88 91 100 100 100 100 100 70 19 5 5 3 5 69 93 93 5 42 45 24 50 69 97 100 100 86 91 52 100 100 100 100 50 97 100 100 100 100 100 100 100
100 44 100 100 100 77 3 18 100 88 24 100 100 100 100 100 98 47 100 36 25 100 95 53 16 51 15 44 52 16 10 79 96 100 100 99 100 97 100 98 100 100 100 100 100 100 100 100 100
41 64 100 100 100 86 5 39 96 78 98 100 100 100 82 100 46 55 76 100 100 100 68 96 96 13 73 95 66 85 100 84 22 53 69 93 56 99 100 100 100 100 94 86 98 100 100 100 100
100 100 100 100 100 100 100 100 100 100 100 100 100 10 24 83 5 6 89 98 100 97 83 100 100 89 76 100 100 100 100 56 70 100 100 100 100 100 100 100 100 100 100 100 100 100 100 100 100
100 100 100 100 100 84 100 100 100 100 100 95 90 3 74 76 5 7 5 14 64 58 100 100 100 98 100 100 100 100 100 100 100 100 100 100 100 98 90 100 100 96 97 100 100 100 100 100 100
96 100 100 43 66 49 48 100 100 100 68 48 12 86 100 46 55 27 41 18 84 100 100 100 100 100 97 75 96 100 100 100 100 100 100 100 83 99 90 84 100 99 98 100 100 100 100 100 100
12 100 97 36 8 5 5 50 100 100 85 5 5 96 88 92 12 69 66 100 100 100 100 100 100 100 26 20 35 73 74 100 100 100 100 100 100 100 100 99 93 99 100 100 95 98 92 100 100
7 97 56 45 5 0 65 95 100 100 98 74 42 98 100 65 77 100 100 86 100 100 100 100 100 95 65 21 46 96 100 100 100 100 100 100 100 100 100 100 100 100 100 100 100 100 100 100 100
94 54 76 6 4 0 64 9 99 100 100 100 100 100 96 91 73 100 100 100 100 100 100 100 100 100 100 76 23 38 41 100 100 100 100 100 100 100 100 100 100 100 100 99 100 100 100 100 100
100 100 100 96 100 88 100 10 48 100 100 100 100 100 100 100 100 100 100 100 100 100 100 100 100 100 96 66 58 85 100 100 100 100 100 100 100 100 100 100 100 100 100 99 100 100 100 100 100
100 100 91 54 18 35 90 100 100 100 100 100 100 100 100 100 100 96 100 100 100 100 100 100 100 100 100 100 100 100 100 100 100 100 100 100 100 100 100 100 100 100 100 100 100 100 100 100 100
100 53 100 92 6 5 6 84 100 100 100 100 100 97 99 63 100 100 100 100 100 100 100 100 100 100 100 100 100 100 100 100 100 100 100 100 100 100 100 100 100 100 100 100 100 98 100 100 100
100 100 79 100 94 100 100 90 100 100 100 100 54 51 69 63 100 100 100 100 100 100 100 100 100 100 100 100 100 100 100 100 100 100 100 100 100 100 100 100 100 100 100 100 100 100 100 100 100
100 99 64 58 6 5 14 76 100 99 32 29 5 5 46 100 100 100 100 100 100 100 100 100 100 100 100 100 100 100 100 100 100 100 90 100 100 100 100 100 100 100 100 100 100 100 100 100 100
100 100 100 99 100 100 51 18 6 69 86 8 5 5 58 100 100 100 100 100 100 100 100 100 100 100 100 100 100 100 100 100 100 91 100 100 100 100 100 100 100 100 100 100 100 100 100 100 100